Biggs, California, United States (95917)
Lat: 39.41N, Lon: 121.71W
Wx Zone: CAZ016
Local Info
Past Weather Observations for Saturday, January 24, 2015

NOTE: This archive is for the closest National Weather Service station to Biggs. Information may differ from the station used for current weather conditions.

Click here for Long-term Archive

Time Weather Temperature Dewpoint Humidity Pressure Winds Precip Visibility
23:53
Clear
Fog And Mist
45°F / 7°C 43°F / 6°C 93% 30.21 in
(1023 mb)
E 4.6 mph
(E 7 kph)
- 5SM
22:53
Clear
Fog And Mist
45°F / 7°C 43°F / 6°C 93% 30.18 in
(1022 mb)
SE 6.9 mph
(SE 11 kph)
- 6SM
21:53
Clear
Fog And Mist
46°F / 8°C 43°F / 6°C 87% 30.18 in
(1022 mb)
SE 6.9 mph
(SE 11 kph)
- 6SM
20:53
Clear
48°F / 9°C 45°F / 7°C 87% 30.18 in
(1022 mb)
ESE 4.6 mph
(ESE 7 kph)
- 7SM
19:53
Clear
48°F / 9°C 45°F / 7°C 87% 30.18 in
(1022 mb)
E 5.8 mph
(E 9 kph)
- 7SM
18:53
Clear
50°F / 10°C 45°F / 7°C 82% 30.15 in
(1021 mb)
SE 5.8 mph
(SE 9 kph)
- 7SM
17:53
Clear
52°F / 11°C 46°F / 8°C 82% 30.15 in
(1021 mb)
SE 6.9 mph
(SE 11 kph)
- 9SM
16:53
Clear
Hazy
55°F / 13°C 46°F / 8°C 72% 30.12 in
(1020 mb)
SSE 6.9 mph
(SSE 11 kph)
- 6SM
15:53
Clear
61°F / 16°C 46°F / 8°C 59% 30.12 in
(1020 mb)
S 4.6 mph
(S 7 kph)
- 8SM
14:53
Clear
57°F / 14°C 46°F / 8°C 67% 30.15 in
(1021 mb)
S 4.6 mph
(S 7 kph)
- 7SM
13:53
Clear
55°F / 13°C 46°F / 8°C 72% 30.15 in
(1021 mb)
S 4.6 mph
(S 7 kph)
- 7SM
12:53
Clear
Hazy
54°F / 12°C 45°F / 7°C 72% 30.18 in
(1022 mb)
SSE 5.8 mph
(SSE 9 kph)
- 5SM
11:53
Partly Cloudy
Hazy
50°F / 10°C 45°F / 7°C 82% 30.24 in
(1024 mb)
S 3.5 mph
(S 6 kph)
- 5SM
11:48
Partly Cloudy
Hazy
50°F / 10°C 45°F / 7°C 82% 30.24 in
(1024 mb)
Variable 3.5 mph
(Variable 6 kph)
- 4SM
11:30
Mostly Cloudy
Fog And Mist
46°F / 8°C 45°F / 7°C 93% 30.24 in
(1024 mb)
SE 4.6 mph
(SE 7 kph)
- 3SM
10:59
Overcast
Fog And Mist
45°F / 7°C 45°F / 7°C 100% 30.27 in
(1025 mb)
SE 3.5 mph
(SE 6 kph)
- 2SM
10:53
Overcast
Fog And Mist
45°F / 7°C 45°F / 7°C 100% 30.27 in
(1025 mb)
Calm - 1SM
10:33
Overcast
Fog And Mist
45°F / 7°C 43°F / 6°C 93% 30.27 in
(1025 mb)
SSE 3.5 mph
(SSE 6 kph)
- 3/4SM
10:29
Overcast
Fog And Mist
45°F / 7°C 43°F / 6°C 93% 30.27 in
(1025 mb)
SE 4.6 mph
(SE 7 kph)
- 1 1/4SM
09:53
Obscured
Fog
43°F / 6°C 43°F / 6°C 100% 30.27 in
(1025 mb)
Calm - 1/4SM
08:53
Obscured
Fog
43°F / 6°C 39°F / 4°C 87% 30.27 in
(1025 mb)
SE 6.9 mph
(SE 11 kph)
- M1/4SM
07:53
Obscured
Fog
41°F / 5°C 39°F / 4°C 93% 30.27 in
(1025 mb)
E 3.5 mph
(E 6 kph)
- M1/4SM
06:53
Obscured
Fog
41°F / 5°C 39°F / 4°C 93% 30.27 in
(1025 mb)
ESE 4.6 mph
(ESE 7 kph)
- 1/4SM
05:53
Obscured
Fog
43°F / 6°C 41°F / 5°C 93% 30.27 in
(1025 mb)
SE 4.6 mph
(SE 7 kph)
- 1/4SM
04:53
Obscured
Fog
43°F / 6°C 41°F / 5°C 93% 30.27 in
(1025 mb)
SE 5.8 mph
(SE 9 kph)
- 1/4SM
03:53
Obscured
Fog
43°F / 6°C 41°F / 5°C 93% 30.3 in
(1026 mb)
SE 4.6 mph
(SE 7 kph)
- 1/4SM
02:53
Obscured
Fog
43°F / 6°C 41°F / 5°C 93% 30.3 in
(1026 mb)
S 6.9 mph
(S 11 kph)
- 1/4SM
02:15
Obscured
Fog
45°F / 7°C 43°F / 6°C 93% 30.3 in
(1026 mb)
SSE 5.8 mph
(SSE 9 kph)
- 1/4SM
02:08
Obscured
Fog And Mist
45°F / 7°C 43°F / 6°C 93% 30.3 in
(1026 mb)
SE 6.9 mph
(SE 11 kph)
- 1SM
02:04
Partly Cloudy
Fog And Mist
43°F / 6°C 41°F / 5°C 93% 30.3 in
(1026 mb)
SE 6.9 mph
(SE 11 kph)
- 2 1/2SM
01:53
Clear
Fog And Mist
45°F / 7°C 43°F / 6°C 93% 30.3 in
(1026 mb)
SE 3.5 mph
(SE 6 kph)
- 4SM
00:53
Clear
Fog And Mist
46°F / 8°C 43°F / 6°C 87% 30.3 in
(1026 mb)
S 6.9 mph
(S 11 kph)
- 6SM
Time Weather Temperature Dewpoint Humidity Pressure Winds Precip Visibility


Weather for websites

WeatherForYou.com, LLC is not responsible for any damages or problems caused by this service. Current weather conditions are obtained from the closest station including government and personal stations which may have varying degrees of accuracy. Weather forecasts are derived from the NOAA NDFD. Like all things, this site belongs to Jesus Christ... He just trusts me to maintain it. If you have any questions or comments email webmaster@weatherforyou.com

Copyright © 2015, WeatherForYou.com LLC. All rights reserved.